Location: Eschertshofen
(49.3064°N, 11.5756°E)
Time: 17:54:48
(UTC+00:00)

Spot 2 Rocket - Pass Details

Date: 21 June 2021
Orbit: 757 x 772 km, 98.5° (Epoch: 01 August)

Event Time Altitude Azimuth Distance (km) Brightness Sun altitude
Exits shadow 21:31:19 - 206° (SSW) 2,619 5.9 -13.6°
Reaches altitude 10° 21:32:18 10° 212° (SSW) 2,294 5.6 -13.7°
Maximum altitude 21:36:28 25° 267° (W) 1,499 5.2 -14.0°
Drops below altitude 10° 21:40:40 10° 323° (NW) 2,317 7.3 -14.2°
Sets 21:43:23 0° 336° (NNW) 3,251 8.7 -14.4°
